Location: Aula-Vintri
(58.3875°N, 22.4322°E)
Time: 15:25:49
(UTC+00:00)

Cosmos 1934 Rocket - Pass Details

Date: 13 October 2019
Orbit: 939 x 998 km, 83.0° (Epoch: 12 November)

Event Time Altitude Azimuth Distance (km) Brightness Sun altitude
Rises 17:24:51 0° 346° (NNW) 3,683 7.4 -15.6°
Reaches altitude 10° 17:27:22 10° 344° (NNW) 2,740 6.7 -15.9°
Maximum altitude 17:33:34 65° 265° (W) 1,084 4.5 -16.7°
Drops below altitude 10° 17:39:49 10° 185° (S) 2,756 6.3 -17.5°
Sets 17:42:22 0° 182° (S) 3,706 6.9 -17.8°
